Check out our new BloomSky Weather System.

Active alerts

Galveston, TX
  Details for Galveston, TX Coastal Flood Advisory  +2 additional alerts
Houston, TX
  Details for Houston, TX Flash Flood Watch
Fort Bend, TX
  Details for Fort Bend, TX Flash Flood Watch


Thunder radar  blitzortung!


Rain radar more information rain snow radar


Visit our other weather sites:

Template documentation
and downloads

And another site



Weather Underground History page Text

Daily Summary for May 17, 2017 Units:  English    Metric   Both
« Previous Day
Next Day »
Daily Weekly Monthly Yearly Custom
  High: Low: Average:
Temperature: TemperatureF °F 75.7 °F 79.8 °F
Dew Point: DewpointF °F 69.1 °F 71.6 °F
Humidity: Humidity % 56 % 76 %
Wind Speed: WindSpeedMPH mph 0.0 mph 6.5 mph
Wind Gust: WindSpeedGustMPH mph - -
Wind:- - SSE
Pressure: PressureIn in 29.70 in -
Precipitation: 0.00 in    
Historical Graphs
 
 
Tabular Data for May 17, 2017
Time Temperature Dew Point Pressure Wind Wind Speed Wind Gust Humidity Rainfall Rate (Hourly)
TemperatureF °F DewpointF °F PressureIn in Calm     Humidity % HourlyPrecipIn in
00:00 75.9 °F 69.3 °F 29.76 in SE 8.0 mph 15.0 mph 80 % 0.00 in
00:05 75.9 °F 69.3 °F 29.76 in ESE 6.0 mph 13.0 mph 80 % 0.00 in
00:10 75.9 °F 69.3 °F 29.76 in SSE 10.0 mph 15.0 mph 80 % 0.00 in
00:15 75.9 °F 69.3 °F 29.76 in South 6.0 mph 17.0 mph 80 % 0.00 in
00:20 75.7 °F 69.4 °F 29.75 in SSE 8.0 mph 17.0 mph 81 % 0.00 in
00:26 75.7 °F 69.4 °F 29.75 in SE 6.0 mph 17.0 mph 81 % 0.00 in
00:31 75.7 °F 69.4 °F 29.75 in SE 9.0 mph 14.0 mph 81 % 0.00 in
00:36 75.7 °F 69.4 °F 29.75 in ESE 11.0 mph 14.0 mph 81 % 0.00 in
00:41 75.7 °F 69.4 °F 29.75 in SE 11.0 mph 17.0 mph 81 % 0.00 in
00:42 75.9 °F 69.6 °F 29.75 in ESE 8.0 mph 17.0 mph 81 % 0.00 in
00:47 75.7 °F 69.4 °F 29.74 in SE 9.0 mph 17.0 mph 81 % 0.00 in
00:52 75.7 °F 69.4 °F 29.74 in ESE 7.0 mph 17.0 mph 81 % 0.00 in
00:57 75.7 °F 69.8 °F 29.74 in SE 7.0 mph 16.0 mph 82 % 0.00 in
01:02 75.7 °F 69.8 °F 29.74 in South 4.0 mph 19.0 mph 82 % 0.00 in
01:07 75.7 °F 69.8 °F 29.73 in SSE 8.0 mph 19.0 mph 82 % 0.00 in
01:12 75.7 °F 69.8 °F 29.73 in SE 6.0 mph 19.0 mph 82 % 0.00 in
01:17 75.7 °F 69.8 °F 29.72 in South 9.0 mph 17.0 mph 82 % 0.00 in
01:22 75.7 °F 69.8 °F 29.72 in ESE 12.0 mph 17.0 mph 82 % 0.00 in
01:27 75.7 °F 69.8 °F 29.72 in SE 6.0 mph 15.0 mph 82 % 0.00 in
01:32 75.7 °F 69.8 °F 29.72 in SE 6.0 mph 15.0 mph 82 % 0.00 in
01:37 75.7 °F 69.8 °F 29.71 in South 7.0 mph 15.0 mph 82 % 0.00 in
01:42 75.9 °F 70.0 °F 29.71 in SSE 8.0 mph 16.0 mph 82 % 0.00 in
01:47 75.9 °F 70.0 °F 29.72 in ESE 7.0 mph 16.0 mph 82 % 0.00 in
01:52 75.9 °F 70.0 °F 29.72 in SE 8.0 mph 16.0 mph 82 % 0.00 in
01:57 75.9 °F 70.0 °F 29.71 in ESE 7.0 mph 14.0 mph 82 % 0.00 in
02:02 75.9 °F 70.0 °F 29.71 in SSE 4.0 mph 14.0 mph 82 % 0.00 in
02:07 75.9 °F 70.0 °F 29.71 in SE 8.0 mph 14.0 mph 82 % 0.00 in
02:12 75.9 °F 70.0 °F 29.71 in South 4.0 mph 16.0 mph 82 % 0.00 in
02:17 75.9 °F 70.0 °F 29.71 in SE 8.0 mph 17.0 mph 82 % 0.00 in
02:22 76.1 °F 70.2 °F 29.71 in SE 7.0 mph 17.0 mph 82 % 0.00 in
02:27 76.1 °F 70.5 °F 29.72 in SE 6.0 mph 17.0 mph 83 % 0.00 in
02:32 76.1 °F 70.5 °F 29.71 in SE 8.0 mph 13.0 mph 83 % 0.00 in
02:37 76.1 °F 70.5 °F 29.71 in ESE 6.0 mph 16.0 mph 83 % 0.00 in
02:42 76.1 °F 70.5 °F 29.71 in SSE 5.0 mph 16.0 mph 83 % 0.00 in
02:47 76.1 °F 70.2 °F 29.71 in SE 8.0 mph 16.0 mph 82 % 0.00 in
02:52 76.1 °F 70.2 °F 29.71 in South 5.0 mph 13.0 mph 82 % 0.00 in
02:57 76.3 °F 70.7 °F 29.71 in SE 12.0 mph 13.0 mph 83 % 0.00 in
03:02 76.1 °F 70.5 °F 29.71 in SSW 5.0 mph 17.0 mph 83 % 0.00 in
03:07 76.1 °F 70.5 °F 29.71 in SSE 10.0 mph 17.0 mph 83 % 0.00 in
03:12 75.9 °F 70.3 °F 29.71 in SE 7.0 mph 17.0 mph 83 % 0.00 in
03:17 76.1 °F 70.5 °F 29.71 in SE 7.0 mph 16.0 mph 83 % 0.00 in
03:22 76.1 °F 70.2 °F 29.71 in East 11.0 mph 16.0 mph 82 % 0.00 in
03:27 76.1 °F 70.5 °F 29.71 in SSE 7.0 mph 16.0 mph 83 % 0.00 in
03:32 76.1 °F 70.5 °F 29.71 in ESE 8.0 mph 16.0 mph 83 % 0.00 in
03:37 76.1 °F 70.2 °F 29.70 in SE 10.0 mph 13.0 mph 82 % 0.00 in
03:42 76.1 °F 70.5 °F 29.70 in SSE 8.0 mph 15.0 mph 83 % 0.00 in
03:47 76.1 °F 70.5 °F 29.70 in SW 7.0 mph 18.0 mph 83 % 0.00 in
03:48 76.1 °F 70.5 °F 29.70 in SSE 8.0 mph 18.0 mph 83 % 0.00 in
03:53 76.1 °F 70.5 °F 29.70 in SE 5.0 mph 18.0 mph 83 % 0.00 in
03:58 75.9 °F 70.3 °F 29.70 in SE 12.0 mph 19.0 mph 83 % 0.00 in
04:03 76.1 °F 70.5 °F 29.71 in ESE 12.0 mph 19.0 mph 83 % 0.00 in
04:05 76.1 °F 70.5 °F 29.71 in SSW 6.0 mph 19.0 mph 83 % 0.00 in
04:10 76.1 °F 70.5 °F 29.71 in SE 8.0 mph 19.0 mph 83 % 0.00 in
04:15 76.1 °F 70.5 °F 29.71 in WSW 11.0 mph 16.0 mph 83 % 0.00 in
04:20 76.1 °F 70.5 °F 29.71 in ESE 11.0 mph 14.0 mph 83 % 0.00 in
04:25 76.1 °F 70.5 °F 29.72 in South 4.0 mph 14.0 mph 83 % 0.00 in
04:30 76.1 °F 70.2 °F 29.72 in SE 7.0 mph 16.0 mph 82 % 0.00 in
04:35 76.1 °F 70.2 °F 29.72 in SSE 4.0 mph 16.0 mph 82 % 0.00 in
04:40 75.9 °F 70.0 °F 29.72 in SSE 9.0 mph 16.0 mph 82 % 0.00 in
04:45 75.9 °F 70.0 °F 29.72 in SSE 6.0 mph 14.0 mph 82 % 0.00 in
04:50 75.9 °F 70.0 °F 29.72 in SSW 6.0 mph 14.0 mph 82 % 0.00 in
04:55 75.9 °F 70.0 °F 29.73 in SSW 7.0 mph 14.0 mph 82 % 0.00 in
05:00 75.9 °F 70.3 °F 29.73 in SSE 5.0 mph 12.0 mph 83 % 0.00 in
05:05 75.9 °F 70.3 °F 29.73 in SE 8.0 mph 12.0 mph 83 % 0.00 in
05:10 75.9 °F 70.3 °F 29.73 in SSW 8.0 mph 10.0 mph 83 % 0.00 in
05:13 75.9 °F 70.3 °F 29.73 in SSW 9.0 mph 10.0 mph 83 % 0.00 in
05:17 76.1 °F 70.5 °F 29.73 in SSE 4.0 mph 12.0 mph 83 % 0.00 in
05:27 76.1 °F 70.5 °F 29.73 in SE 5.0 mph 12.0 mph 83 % 0.00 in
05:32 76.1 °F 70.5 °F 29.73 in SE 9.0 mph 12.0 mph 83 % 0.00 in
05:37 76.1 °F 70.9 °F 29.73 in SE 5.0 mph 12.0 mph 84 % 0.00 in
05:46 75.9 °F 70.7 °F 29.73 in SE 6.0 mph 12.0 mph 84 % 0.00 in
05:51 76.1 °F 70.9 °F 29.73 in ESE 4.0 mph 12.0 mph 84 % 0.00 in
05:56 76.1 °F 70.9 °F 29.73 in SW 10.0 mph 14.0 mph 84 % 0.00 in
06:01 76.1 °F 70.9 °F 29.73 in ESE 10.0 mph 14.0 mph 84 % 0.00 in
06:06 76.1 °F 70.9 °F 29.73 in SE 4.0 mph 14.0 mph 84 % 0.00 in
06:11 76.1 °F 70.9 °F 29.73 in SSW 5.0 mph 14.0 mph 84 % 0.00 in
06:16 75.9 °F 70.7 °F 29.73 in SE 8.0 mph 14.0 mph 84 % 0.00 in
06:21 75.9 °F 70.7 °F 29.74 in ESE 8.0 mph 14.0 mph 84 % 0.00 in
06:26 75.9 °F 70.7 °F 29.74 in SE 8.0 mph 14.0 mph 84 % 0.00 in
06:31 75.9 °F 70.7 °F 29.74 in South 5.0 mph 14.0 mph 84 % 0.00 in
06:36 75.9 °F 70.7 °F 29.75 in South 5.0 mph 13.0 mph 84 % 0.00 in
06:38 75.9 °F 70.7 °F 29.75 in South 7.0 mph 13.0 mph 84 % 0.00 in
06:41 75.9 °F 70.7 °F 29.75 in SSW 6.0 mph 12.0 mph 84 % 0.00 in
06:46 75.9 °F 70.7 °F 29.75 in SSE 6.0 mph 12.0 mph 84 % 0.00 in
06:51 75.9 °F 70.7 °F 29.76 in SSE 3.0 mph 12.0 mph 84 % 0.00 in
06:56 75.7 °F 70.5 °F 29.76 in SSW 8.0 mph 12.0 mph 84 % 0.00 in
07:01 75.9 °F 70.7 °F 29.77 in SE 2.0 mph 10.0 mph 84 % 0.00 in
07:06 75.9 °F 70.7 °F 29.79 in Calm   10.0 mph 84 % 0.00 in
07:11 76.1 °F 70.9 °F 29.80 in Calm   10.0 mph 84 % 0.00 in
07:16 76.3 °F 71.1 °F 29.80 in SSE 3.0 mph 6.0 mph 84 % 0.00 in
07:21 76.3 °F 71.1 °F 29.80 in SSW 1.0 mph 6.0 mph 84 % 0.00 in
07:26 76.3 °F 71.1 °F 29.81 in SSW 1.0 mph 5.0 mph 84 % 0.00 in
07:31 76.5 °F 70.9 °F 29.81 in SE 3.0 mph 6.0 mph 83 % 0.00 in
07:36 76.5 °F 71.2 °F 29.81 in SSW 1.0 mph 6.0 mph 84 % 0.00 in
07:41 76.6 °F 71.1 °F 29.81 in SSE 2.0 mph 6.0 mph 83 % 0.00 in
07:44 76.6 °F 71.1 °F 29.81 in SE 2.0 mph 6.0 mph 83 % 0.00 in
07:49 76.8 °F 71.2 °F 29.81 in SE 5.0 mph 6.0 mph 83 % 0.00 in
07:54 77.4 °F 71.4 °F 29.81 in SE 4.0 mph 7.0 mph 82 % 0.00 in
07:59 77.7 °F 71.8 °F 29.81 in ESE 4.0 mph 7.0 mph 82 % 0.00 in
08:04 78.1 °F 71.8 °F 29.82 in SE 4.0 mph 7.0 mph 81 % 0.00 in
08:09 78.4 °F 71.8 °F 29.82 in ESE 5.0 mph 8.0 mph 80 % 0.00 in
08:14 78.6 °F 72.0 °F 29.82 in SE 2.0 mph 8.0 mph 80 % 0.00 in
08:19 79.2 °F 72.1 °F 29.82 in SE 2.0 mph 8.0 mph 79 % 0.00 in
08:24 79.5 °F 72.1 °F 29.82 in SW 6.0 mph 7.0 mph 78 % 0.00 in
08:29 79.3 °F 71.4 °F 29.82 in SSE 4.0 mph 9.0 mph 77 % 0.00 in
08:34 79.2 °F 71.8 °F 29.82 in SE 5.0 mph 9.0 mph 78 % 0.00 in
08:39 79.0 °F 72.0 °F 29.82 in SE 4.0 mph 9.0 mph 79 % 0.00 in
08:44 79.2 °F 71.8 °F 29.83 in South 4.0 mph 10.0 mph 78 % 0.00 in
08:49 79.5 °F 71.6 °F 29.83 in SW 5.0 mph 10.0 mph 77 % 0.00 in
08:54 79.9 °F 71.2 °F 29.83 in SSE 9.0 mph 10.0 mph 75 % 0.00 in
08:59 79.7 °F 71.4 °F 29.83 in ESE 4.0 mph 11.0 mph 76 % 0.00 in
09:00 79.7 °F 71.4 °F 29.83 in ESE 6.0 mph 11.0 mph 76 % 0.00 in
09:05 79.7 °F 71.4 °F 29.83 in SW 5.0 mph 11.0 mph 76 % 0.00 in
09:10 79.7 °F 71.1 °F 29.83 in South 3.0 mph 10.0 mph 75 % 0.00 in
09:15 79.9 °F 70.9 °F 29.83 in SSE 5.0 mph 10.0 mph 74 % 0.00 in
09:20 80.1 °F 71.4 °F 29.82 in SSW 3.0 mph 10.0 mph 75 % 0.00 in
09:25 80.4 °F 71.4 °F 29.83 in SE 8.0 mph 10.0 mph 74 % 0.00 in
09:30 81.1 °F 72.1 °F 29.83 in SE 6.0 mph 10.0 mph 74 % 0.00 in
09:35 81.3 °F 71.1 °F 29.83 in SSE 5.0 mph 12.0 mph 71 % 0.00 in
09:40 81.7 °F 70.9 °F 29.83 in SE 7.0 mph 12.0 mph 70 % 0.00 in
09:45 82.0 °F 71.2 °F 29.83 in SE 7.0 mph 12.0 mph 70 % 0.00 in
09:50 82.6 °F 70.9 °F 29.83 in SE 5.0 mph 12.0 mph 68 % 0.00 in
09:55 82.9 °F 71.2 °F 29.82 in South 4.0 mph 12.0 mph 68 % 0.00 in
10:00 82.9 °F 71.8 °F 29.82 in SE 6.0 mph 12.0 mph 69 % 0.00 in
10:05 83.3 °F 71.2 °F 29.82 in South 10.0 mph 12.0 mph 67 % 0.00 in
10:11 83.7 °F 71.1 °F 29.82 in ESE 7.0 mph 12.0 mph 66 % 0.00 in
10:16 83.1 °F 70.5 °F 29.82 in SE 8.0 mph 13.0 mph 66 % 0.00 in
10:21 82.9 °F 69.4 °F 29.82 in ESE 11.0 mph 14.0 mph 64 % 0.00 in
10:26 82.8 °F 69.8 °F 29.82 in SE 8.0 mph 14.0 mph 65 % 0.00 in
10:31 82.9 °F 70.9 °F 29.82 in South 7.0 mph 14.0 mph 67 % 0.00 in
10:36 83.3 °F 70.3 °F 29.82 in ESE 9.0 mph 15.0 mph 65 % 0.00 in
10:41 83.8 °F 71.2 °F 29.82 in SE 6.0 mph 15.0 mph 66 % 0.00 in
10:46 84.4 °F 70.3 °F 29.82 in South 6.0 mph 17.0 mph 63 % 0.00 in
10:51 84.7 °F 71.2 °F 29.81 in South 6.0 mph 17.0 mph 64 % 0.00 in
10:56 84.9 °F 71.4 °F 29.81 in SSW 5.0 mph 17.0 mph 64 % 0.00 in
11:01 85.1 °F 71.1 °F 29.81 in SSE 6.0 mph 15.0 mph 63 % 0.00 in
11:06 85.3 °F 71.2 °F 29.81 in SSE 6.0 mph 15.0 mph 63 % 0.00 in
11:11 84.9 °F 70.5 °F 29.81 in SSE 9.0 mph 18.0 mph 62 % 0.00 in
11:16 85.3 °F 70.7 °F 29.81 in SSE 5.0 mph 18.0 mph 62 % 0.00 in
11:21 85.6 °F 70.2 °F 29.81 in East 8.0 mph 18.0 mph 60 % 0.00 in
11:26 86.0 °F 70.5 °F 29.82 in South 6.0 mph 14.0 mph 60 % 0.00 in
11:31 86.4 °F 70.3 °F 29.81 in SE 5.0 mph 15.0 mph 59 % 0.00 in
11:36 86.7 °F 69.1 °F 29.81 in SE 7.0 mph 15.0 mph 56 % 0.00 in
11:41 86.7 °F 69.1 °F 29.81 in SSW 7.0 mph 17.0 mph 56 % 0.00 in
11:46 86.5 °F 69.4 °F 29.81 in SSE 7.0 mph 17.0 mph 57 % 0.00 in
11:51 86.5 °F 70.0 °F 29.81 in SE 6.0 mph 17.0 mph 58 % 0.00 in
11:56 86.9 °F 70.9 °F 29.81 in SE 13.0 mph 17.0 mph 59 % 0.00 in
12:01 87.1 °F 71.1 °F 29.81 in SE 14.0 mph 17.0 mph 59 % 0.00 in
12:06 87.1 °F 70.5 °F 29.81 in SE 6.0 mph 18.0 mph 58 % 0.00 in
12:11 86.7 °F 70.7 °F 29.81 in SSW 5.0 mph 18.0 mph 59 % 0.00 in
12:16 86.5 °F 71.4 °F 29.81 in SSW 3.0 mph 18.0 mph 61 % 0.00 in
12:21 87.1 °F 71.4 °F 29.80 in SSE 10.0 mph 16.0 mph 60 % 0.00 in
12:26 87.4 °F 71.4 °F 29.80 in SSE 6.0 mph 16.0 mph 59 % 0.00 in
12:31 87.4 °F 71.8 °F 29.80 in SE 12.0 mph 18.0 mph 60 % 0.00 in
12:36 86.9 °F 71.4 °F 29.80 in SE 7.0 mph 18.0 mph 60 % 0.00 in
12:41 87.3 °F 71.2 °F 29.80 in SSE 10.0 mph 18.0 mph 59 % 0.00 in
12:46 87.3 °F 71.6 °F 29.81 in SE 10.0 mph 16.0 mph 60 % 0.00 in
12:51 86.5 °F 71.4 °F 29.80 in ESE 5.0 mph 16.0 mph 61 % 0.00 in
12:56 86.7 °F 71.6 °F 29.81 in South 6.0 mph 15.0 mph 61 % 0.00 in
13:01 86.4 °F 71.2 °F 29.81 in South 13.0 mph 18.0 mph 61 % 0.00 in
13:06 86.0 °F 71.1 °F 29.81 in SSE 5.0 mph 18.0 mph 61 % 0.00 in
13:11 85.8 °F 71.2 °F 29.80 in SE 7.0 mph 18.0 mph 62 % 0.00 in
13:16 85.3 °F 71.8 °F 29.80 in SSE 9.0 mph 16.0 mph 64 % 0.00 in
13:21 85.1 °F 72.0 °F 29.80 in SE 8.0 mph 17.0 mph 65 % 0.00 in
13:26 86.0 °F 72.3 °F 29.80 in SSE 4.0 mph 17.0 mph 64 % 0.00 in
13:31 86.4 °F 72.3 °F 29.79 in SSE 11.0 mph 17.0 mph 63 % 0.00 in
13:36 86.2 °F 72.1 °F 29.80 in ESE 7.0 mph 16.0 mph 63 % 0.00 in
13:41 85.6 °F 72.5 °F 29.80 in SSE 6.0 mph 16.0 mph 65 % 0.00 in
13:46 85.3 °F 72.1 °F 29.79 in South 6.0 mph 15.0 mph 65 % 0.00 in
13:51 85.1 °F 72.5 °F 29.79 in ESE 13.0 mph 15.0 mph 66 % 0.00 in
13:56 84.9 °F 72.3 °F 29.79 in SSW 6.0 mph 21.0 mph 66 % 0.00 in
14:01 84.9 °F 72.7 °F 29.79 in SE 4.0 mph 21.0 mph 67 % 0.00 in
14:06 84.7 °F 72.5 °F 29.79 in SSW 7.0 mph 21.0 mph 67 % 0.00 in
14:11 84.6 °F 72.3 °F 29.79 in SSE 8.0 mph 16.0 mph 67 % 0.00 in
14:16 84.6 °F 72.9 °F 29.79 in SSE 10.0 mph 16.0 mph 68 % 0.00 in
14:21 84.9 °F 73.2 °F 29.79 in South 4.0 mph 14.0 mph 68 % 0.00 in
14:26 84.9 °F 73.2 °F 29.78 in SSE 7.0 mph 14.0 mph 68 % 0.00 in
14:31 84.9 °F 72.7 °F 29.78 in SSE 13.0 mph 14.0 mph 67 % 0.00 in
14:36 84.4 °F 72.7 °F 29.78 in SE 6.0 mph 19.0 mph 68 % 0.00 in
14:41 83.8 °F 72.5 °F 29.79 in South 5.0 mph 19.0 mph 69 % 0.00 in
14:46 83.1 °F 72.3 °F 29.79 in SSW 6.0 mph 19.0 mph 70 % 0.00 in
14:51 82.9 °F 72.5 °F 29.78 in SSE 6.0 mph 19.0 mph 71 % 0.00 in
14:56 83.1 °F 72.7 °F 29.78 in SSW 13.0 mph 16.0 mph 71 % 0.00 in
15:01 82.9 °F 72.5 °F 29.78 in SW 14.0 mph 16.0 mph 71 % 0.00 in
15:06 82.8 °F 72.3 °F 29.78 in South 9.0 mph 18.0 mph 71 % 0.00 in
15:11 82.6 °F 72.7 °F 29.78 in South 13.0 mph 18.0 mph 72 % 0.00 in
15:16 82.2 °F 72.7 °F 29.78 in SSW 8.0 mph 18.0 mph 73 % 0.00 in
15:21 82.0 °F 72.5 °F 29.78 in SE 12.0 mph 16.0 mph 73 % 0.00 in
15:26 82.0 °F 72.5 °F 29.78 in SSW 8.0 mph 15.0 mph 73 % 0.00 in
15:31 81.9 °F 72.7 °F 29.78 in SE 5.0 mph 15.0 mph 74 % 0.00 in
15:36 82.0 °F 72.9 °F 29.78 in South 9.0 mph 15.0 mph 74 % 0.00 in
15:41 81.9 °F 73.2 °F 29.78 in SE 4.0 mph 13.0 mph 75 % 0.00 in
15:42 81.9 °F 73.2 °F 29.78 in ESE 5.0 mph 13.0 mph 75 % 0.00 in
15:47 81.5 °F 72.9 °F 29.78 in SSE 4.0 mph 10.0 mph 75 % 0.00 in
15:52 81.3 °F 73.0 °F 29.78 in South 5.0 mph 10.0 mph 76 % 0.00 in
15:57 81.3 °F 73.0 °F 29.78 in SSE 5.0 mph 12.0 mph 76 % 0.00 in
16:02 80.8 °F 73.6 °F 29.78 in SSE 12.0 mph 18.0 mph 79 % 0.00 in
16:07 79.5 °F 73.6 °F 29.78 in South 7.0 mph 18.0 mph 82 % 0.00 in
16:12 79.0 °F 73.8 °F 29.78 in SE 5.0 mph 18.0 mph 84 % 0.00 in
16:17 78.8 °F 73.9 °F 29.77 in SSE 3.0 mph 17.0 mph 85 % 0.00 in
16:22 79.0 °F 74.1 °F 29.77 in SSW 4.0 mph 13.0 mph 85 % 0.00 in
16:27 79.2 °F 73.9 °F 29.77 in ESE 5.0 mph 10.0 mph 84 % 0.00 in
16:32 79.7 °F 73.8 °F 29.77 in South 8.0 mph 10.0 mph 82 % 0.00 in
16:37 80.2 °F 73.9 °F 29.77 in SSE 6.0 mph 11.0 mph 81 % 0.00 in
16:42 80.6 °F 73.4 °F 29.77 in SE 5.0 mph 11.0 mph 79 % 0.00 in
16:47 81.0 °F 73.4 °F 29.77 in SE 4.0 mph 11.0 mph 78 % 0.00 in
16:52 81.1 °F 73.2 °F 29.77 in SSE 4.0 mph 10.0 mph 77 % 0.00 in
16:57 81.3 °F 73.4 °F 29.77 in SE 7.0 mph 10.0 mph 77 % 0.00 in
17:02 81.7 °F 73.4 °F 29.77 in SE 10.0 mph 11.0 mph 76 % 0.00 in
17:07 81.9 °F 73.2 °F 29.77 in SE 9.0 mph 15.0 mph 75 % 0.00 in
17:12 82.2 °F 73.6 °F 29.77 in SE 6.0 mph 15.0 mph 75 % 0.00 in
17:17 82.2 °F 73.0 °F 29.77 in ESE 7.0 mph 15.0 mph 74 % 0.00 in
17:22 82.4 °F 72.9 °F 29.77 in SE 9.0 mph 14.0 mph 73 % 0.00 in
17:27 82.4 °F 72.5 °F 29.77 in SE 9.0 mph 15.0 mph 72 % 0.00 in
17:32 82.4 °F 72.5 °F 29.77 in SSE 9.0 mph 15.0 mph 72 % 0.00 in
17:37 82.4 °F 72.5 °F 29.77 in SE 12.0 mph 15.0 mph 72 % 0.00 in
17:42 82.2 °F 72.3 °F 29.77 in SSE 7.0 mph 15.0 mph 72 % 0.00 in
17:44 82.2 °F 72.3 °F 29.76 in ESE 9.0 mph 15.0 mph 72 % 0.00 in
17:45 82.2 °F 72.3 °F 29.76 in SE 7.0 mph 15.0 mph 72 % 0.00 in
17:50 82.0 °F 72.1 °F 29.76 in SE 6.0 mph 15.0 mph 72 % 0.00 in
17:55 82.0 °F 72.1 °F 29.76 in SSE 7.0 mph 15.0 mph 72 % 0.00 in
18:00 82.0 °F 72.1 °F 29.76 in SSE 10.0 mph 13.0 mph 72 % 0.00 in
18:05 81.9 °F 72.3 °F 29.77 in SSW 6.0 mph 16.0 mph 73 % 0.00 in
18:10 81.9 °F 72.3 °F 29.77 in East 10.0 mph 16.0 mph 73 % 0.00 in
18:12 81.7 °F 72.5 °F 29.77 in SE 4.0 mph 16.0 mph 74 % 0.00 in
18:17 81.7 °F 72.5 °F 29.77 in ESE 11.0 mph 16.0 mph 74 % 0.00 in
18:19 81.7 °F 72.5 °F 29.77 in South 5.0 mph 16.0 mph 74 % 0.00 in
18:24 81.7 °F 72.5 °F 29.77 in SE 8.0 mph 16.0 mph 74 % 0.00 in
18:29 81.5 °F 72.3 °F 29.76 in SSE 9.0 mph 16.0 mph 74 % 0.00 in
18:34 81.3 °F 72.3 °F 29.76 in South 5.0 mph 16.0 mph 74 % 0.00 in
18:39 81.3 °F 72.7 °F 29.77 in SE 11.0 mph 16.0 mph 75 % 0.00 in
18:44 81.3 °F 72.7 °F 29.76 in SSE 8.0 mph 16.0 mph 75 % 0.00 in
18:49 81.1 °F 72.5 °F 29.76 in SSE 7.0 mph 15.0 mph 75 % 0.00 in
18:54 81.1 °F 72.5 °F 29.76 in SE 7.0 mph 17.0 mph 75 % 0.00 in
18:59 81.1 °F 72.5 °F 29.76 in ENE 4.0 mph 17.0 mph 75 % 0.00 in
19:04 81.1 °F 72.5 °F 29.76 in SE 8.0 mph 17.0 mph 75 % 0.00 in
19:09 81.1 °F 72.5 °F 29.76 in ESE 6.0 mph 16.0 mph 75 % 0.00 in
19:14 81.0 °F 72.7 °F 29.77 in ESE 8.0 mph 16.0 mph 76 % 0.00 in
19:19 81.0 °F 72.7 °F 29.77 in SSE 4.0 mph 18.0 mph 76 % 0.00 in
19:24 80.8 °F 72.5 °F 29.77 in ESE 7.0 mph 18.0 mph 76 % 0.00 in
19:29 81.0 °F 72.7 °F 29.77 in South 8.0 mph 18.0 mph 76 % 0.00 in
19:34 80.8 °F 72.9 °F 29.78 in SSE 4.0 mph 10.0 mph 77 % 0.00 in
19:39 80.8 °F 72.9 °F 29.77 in SSW 4.0 mph 10.0 mph 77 % 0.00 in
19:44 80.8 °F 72.9 °F 29.77 in South 3.0 mph 12.0 mph 77 % 0.00 in
19:49 80.8 °F 72.9 °F 29.78 in East 7.0 mph 12.0 mph 77 % 0.00 in
19:54 80.8 °F 72.9 °F 29.78 in SSW 4.0 mph 12.0 mph 77 % 0.00 in
19:59 80.8 °F 73.2 °F 29.78 in ESE 5.0 mph 11.0 mph 78 % 0.00 in
20:04 80.8 °F 73.2 °F 29.77 in SE 6.0 mph 11.0 mph 78 % 0.00 in
20:09 80.8 °F 73.2 °F 29.78 in SE 8.0 mph 10.0 mph 78 % 0.00 in
20:14 80.6 °F 73.4 °F 29.78 in ESE 10.0 mph 12.0 mph 79 % 0.00 in
20:19 80.6 °F 73.4 °F 29.78 in East 4.0 mph 12.0 mph 79 % 0.00 in
20:24 80.4 °F 73.2 °F 29.78 in SE 7.0 mph 13.0 mph 79 % 0.00 in
20:29 80.4 °F 73.2 °F 29.78 in SE 5.0 mph 13.0 mph 79 % 0.00 in
20:34 80.4 °F 73.8 °F 29.78 in SSW 4.0 mph 13.0 mph 80 % 0.00 in
20:39 80.4 °F 73.8 °F 29.78 in SSE 4.0 mph 10.0 mph 80 % 0.00 in
20:44 80.4 °F 73.8 °F 29.78 in SE 6.0 mph 10.0 mph 80 % 0.00 in
20:49 80.4 °F 73.8 °F 29.78 in SSE 7.0 mph 11.0 mph 80 % 0.00 in
20:50 80.4 °F 73.8 °F 29.78 in SE 2.0 mph 12.0 mph 80 % 0.00 in
20:55 80.4 °F 73.8 °F 29.78 in SSE 6.0 mph 12.0 mph 80 % 0.00 in
21:00 80.4 °F 74.1 °F 29.78 in SE 8.0 mph 12.0 mph 81 % 0.00 in
21:05 80.4 °F 74.1 °F 29.78 in ESE 4.0 mph 11.0 mph 81 % 0.00 in
21:10 80.2 °F 73.9 °F 29.79 in SSE 7.0 mph 11.0 mph 81 % 0.00 in
21:15 80.2 °F 73.9 °F 29.79 in SSE 4.0 mph 11.0 mph 81 % 0.00 in
21:20 80.2 °F 74.3 °F 29.79 in ESE 6.0 mph 9.0 mph 82 % 0.00 in
21:25 80.2 °F 74.3 °F 29.79 in East 5.0 mph 9.0 mph 82 % 0.00 in
21:30 80.2 °F 74.3 °F 29.80 in ESE 5.0 mph 9.0 mph 82 % 0.00 in
21:35 80.2 °F 74.3 °F 29.80 in ESE 4.0 mph 9.0 mph 82 % 0.00 in
21:40 80.2 °F 74.3 °F 29.80 in SE 4.0 mph 9.0 mph 82 % 0.00 in
21:45 80.1 °F 74.5 °F 29.80 in ESE 4.0 mph 10.0 mph 83 % 0.00 in
21:50 80.1 °F 74.5 °F 29.80 in ESE 4.0 mph 10.0 mph 83 % 0.00 in
21:55 80.1 °F 74.5 °F 29.80 in SSE 5.0 mph 10.0 mph 83 % 0.00 in
22:00 80.1 °F 74.5 °F 29.80 in ENE 6.0 mph 10.0 mph 83 % 0.00 in
22:05 79.9 °F 74.7 °F 29.81 in SSE 4.0 mph 10.0 mph 84 % 0.00 in
22:10 80.1 °F 74.8 °F 29.81 in SE 5.0 mph 10.0 mph 84 % 0.00 in
22:15 79.9 °F 74.7 °F 29.80 in SE 5.0 mph 10.0 mph 84 % 0.00 in
22:20 79.9 °F 74.7 °F 29.81 in SE 4.0 mph 10.0 mph 84 % 0.00 in
22:25 79.9 °F 74.7 °F 29.81 in SE 5.0 mph 10.0 mph 84 % 0.00 in
22:30 79.9 °F 75.0 °F 29.81 in SSE 4.0 mph 11.0 mph 85 % 0.00 in
22:35 79.9 °F 75.0 °F 29.81 in ESE 6.0 mph 11.0 mph 85 % 0.00 in
22:40 79.7 °F 74.8 °F 29.81 in South 3.0 mph 11.0 mph 85 % 0.00 in
22:45 79.7 °F 74.8 °F 29.81 in SE 4.0 mph 10.0 mph 85 % 0.00 in
22:51 79.7 °F 74.8 °F 29.81 in ESE 6.0 mph 10.0 mph 85 % 0.00 in
22:55 79.7 °F 74.8 °F 29.81 in SSE 8.0 mph 12.0 mph 85 % 0.00 in
23:01 79.5 °F 75.0 °F 29.81 in ESE 8.0 mph 12.0 mph 86 % 0.00 in
23:06 79.5 °F 75.0 °F 29.81 in SSE 7.0 mph 12.0 mph 86 % 0.00 in
23:10 79.5 °F 75.0 °F 29.81 in ESE 6.0 mph 11.0 mph 86 % 0.00 in
23:15 79.5 °F 75.0 °F 29.81 in SE 7.0 mph 10.0 mph 86 % 0.00 in
23:20 79.5 °F 75.0 °F 29.81 in SE 7.0 mph 11.0 mph 86 % 0.00 in
23:26 79.5 °F 75.0 °F 29.81 in SSE 6.0 mph 11.0 mph 86 % 0.00 in
23:36 79.5 °F 75.0 °F 29.81 in SSE 4.0 mph 7.0 mph 86 % 0.00 in
23:41 79.5 °F 75.0 °F 29.81 in SE 4.0 mph 7.0 mph 86 % 0.00 in
23:46 79.5 °F 75.0 °F 29.81 in SE 4.0 mph 9.0 mph 86 % 0.00 in
23:51 79.5 °F 75.0 °F 29.81 in SSE 4.0 mph 9.0 mph 86 % 0.00 in
23:56 79.5 °F 75.0 °F 29.81 in SSE 2.0 mph 9.0 mph 86 % 0.00 in
Spring, Texas: Villages of Bridgestone
Compliments of Weather Underground - 3 mb

Script developed by  Jim McMurry - jmcmurry@mwt.net Adapted for the template by  Wim van der Kuil - Leuven-Template.eu

You find our weather info also at:

UK Metoffice

WeatherCloud

Weather Underground

Mid-South Weather Network

AWEKAS

Citizen Weather Observer Program (CWOP)

HAMweather, WeatherForYou, PWS Weather

Equipment we use:

Weather-station
Davis Vantage Vue

Weather-program
Meteohub

Weather-server
Debian 7.9 x86 (Guest)

Provider
DreamHost

Davis Vantage Vue

Meteohub

Debian 7.9 x86 (Guest)

DreamHost